This is the latest recevied weather packets stored in our database for station/object DG4CB-13. If no packets are shown the sender has not sent any weather packets the latest 1 day(s).
| Time | Temp. | Humidity | Pressure | Rain* | Wind** | Luminosity | Snow |
|---|---|---|---|---|---|---|---|
| 1778089800 | 12.22° C | 72% | 1005.2 hPa | - | - | - | - |
| 1778089200 | 12.78° C | 69% | 1005.1 hPa | - | - | - | - |
| 1778087401 | 13.89° C | 69% | 1004.8 hPa | - | - | - | - |
| 1778086800 | 13.89° C | 69% | 1004.7 hPa | - | - | - | - |
| 1778086200 | 14.44° C | 69% | 1004.6 hPa | - | - | - | - |
| 1778084400 | 15° C | 69% | 1004.5 hPa | - | - | - | - |
| 1778083800 | 15° C | 69% | 1004.4 hPa | - | - | - | - |
| 1778077199 | 16.11° C | 71% | 1003.7 hPa | - | - | - | - |
| 1778074200 | 16.11° C | 68% | 1003.8 hPa | - | - | - | - |
| 1778069400 | 17.22° C | 62% | 1003.8 hPa | - | - | - | - |
| 1778064600 | 16.67° C | 65% | 1003.6 hPa | - | - | - | - |
| 1778063400 | 16.67° C | 67% | 1003.7 hPa | - | - | - | - |
| 1778062800 | 16.11° C | 66% | 1003.7 hPa | - | - | - | - |
| 1778062200 | 16.11° C | 67% | 1003.7 hPa | - | - | - | - |
| 1778061600 | 16.11° C | 68% | 1003.7 hPa | - | - | - | - |
| 1778061000 | 15.56° C | 70% | 1003.7 hPa | - | - | - | - |
| 1778060400 | 15.56° C | 71% | 1003.8 hPa | - | - | - | - |
| 1778059200 | 15.56° C | 71% | 1003.5 hPa | - | - | - | - |
| 1778058600 | 15.56° C | 74% | 1003.5 hPa | - | - | - | - |
| 1778058000 | 15° C | 78% | 1003.4 hPa | - | - | - | - |
| 1778057400 | 14.44° C | 78% | 1003.5 hPa | - | - | - | - |
| 1778056800 | 14.44° C | 81% | 1003.6 hPa | - | - | - | - |
| 1778056200 | 13.89° C | 81% | 1003.4 hPa | - | - | - | - |
| 1778055600 | 13.89° C | 81% | 1003.4 hPa | - | - | - | - |
| 1778055000 | 13.89° C | 82% | 1003.4 hPa | - | - | - | - |
* Rain since midnight (hover to see other rain measurements)
** Current wind speed in m/s (hover to see current wind gust speed)